Showing default

ABS 6 (LMI 1), 25924

Orbit data source: Space-Track

ABS 6 (LMI 1), 25924 is an Emirian payload satellite in GEO that was launched on Sun, 26 Sep 1999 UTC via a PROTON-K/DM-2M launch vehicle from the Tyuratam Missile And Space Complex (TTMTR). Payload-class satellites include a variety of spacecraft equipped with specific instruments for various scientific and technological missions. These include communications satellites like Starlink; space stations such as the ISS; scientific satellites like the Hubble; Earth observation satellites from companies like Planet Labs, Umbra, and HawkEye 360; GPS; miniature CubeSats for education and research; and military/defense satellites.

Not visible in the next 10 days
Identifier
25924, 1999-053A
Orbit
GEO
Country
Flag of AEAE / ABS
Related business
Manufacturer
LMCSS
Mission
Operational Commercial Communications
Bus & Motor
A2100, LEROS 1C
Mass
3,740 kg wet, 1,730 kg dry
Launch date (UTC)
1999-09-26 (26 years ago)
Launch vehicle
PROTON-K/DM-2M
Launch site
Tyuratam Missile And Space Complex (TTMTR)
Object type
Payload
Rocket body
Debris
Shape & HBR
Box + 2 Pan, 10.5 m
Radar Cross Section
18.290 m², Large (>1 m²)

Expand to show TLE details & history
Last TLE update: 15 hours ago

TLE from 15 hours ago
0 ABS 6 (LMI 1)
1 25924U 99053A   25258.75877674 -.00000137  00000-0  00000-0 0  9993
2 25924   0.0241 237.4574 0001394 261.6707 287.9717  1.00271202 95087
Epoch: 2025-09-15T18:12Z
TLE epoch observation values (Epoch: 2025-09-15T18:12:38.31Z)
Latitude
-0.01834°
Longitude
158.96512°
Altitude
35,784.454 km
Speed
3.075 km/s
True Right ascension
04h 28m 20s
True Declination
0° 01' 06"
Sunlit
Object was in daylight at epoch
Visualization orbit readout
Latitude
Unknown
Longitude
Unknown
Altitude
Unknown
Speed
Unknown
Apparent Right ascension
Unknown
Apparent Declination
Unknown
Sunlit
N/A
Visualization observer readout
Local Sidereal Time
01:49:48
Azimuth
Unknown
Elevation
Unknown
Doppler factor
Unknown
Orbital elements
Apogee altitude
35,793.707 km
Perigee altitude
35,781.951 km
Semi-major axis
42,165.966 km
Eccentricity
0.00014
Inclination
0.0241°
RAAN
237.4574°
Arg. of periapsis
261.6707°
True anomaly
287.9565°
Mean anomaly
287.9717°
Eccentric anomaly
287.9641°
Mean motion
0.25067 °/min
Orbital period
1,436.16 mins
BSTAR
0
Loading maneuver chart data...
Computing Atmospheric mass density...
Loading historical data...
Loading historical data...
Loading historical data...
Loading historical data...
Loading historical data...
Loading historical data...
Loading historical data...
Other satellites on launch #53 in the year 1999 (1999-09-26 UTC)

Documentation

Showing up to 5 results
|